Theta_e
320 321 321 320 324 324 325 327 325 327 327 328 323 341 344 343 344 346 348 347 347 354 355 345 342 343 345 346 345 346 347 348 342 340 344 344 339 335 335 335 337 336 334 328 323 319 317 319 321
319 320 321 322 323 324 325 324 327 327 326 323 321 333 339 343 345 350 349 346 347 354 355 351 341 341 343 346 346 347 348 347 344 344 346 344 338 334 334 334 335 331 326 322 320 317 316 318 323
318 321 325 326 323 324 325 324 326 326 325 326 328 331 334 338 337 346 348 349 348 353 353 353 339 338 340 343 347 347 347 346 345 345 345 341 335 334 332 332 331 325 321 319 317 316 315 316 322
317 321 322 327 326 323 323 325 327 327 327 327 328 332 332 329 333 347 350 351 350 351 352 348 339 336 336 338 343 345 346 346 345 345 342 336 333 332 329 328 325 321 319 317 316 315 314 313 314
317 321 326 327 327 325 324 326 326 326 326 328 327 330 335 333 348 352 351 352 349 351 352 351 339 336 335 335 337 341 344 345 345 343 337 334 332 329 326 325 322 320 318 316 316 317 317 317 317
321 321 326 327 325 324 325 325 325 325 324 325 326 328 330 330 348 352 352 352 348 350 353 353 340 337 335 335 334 335 338 340 340 337 334 334 332 329 326 323 320 319 317 316 316 317 318 319 320
321 323 324 325 325 324 324 324 324 323 324 324 323 328 329 327 338 352 352 352 349 350 353 353 349 338 336 335 334 332 333 335 335 335 334 333 330 326 324 322 320 318 317 316 316 317 318 318 318
319 321 321 322 323 324 322 322 322 323 323 322 322 325 324 324 326 347 351 352 350 349 351 353 351 347 346 344 335 333 332 332 334 335 335 333 330 325 323 321 319 318 317 317 317 317 317 317 317
315 320 320 320 321 321 321 321 320 320 320 321 321 322 322 324 334 344 347 350 349 348 350 352 351 349 347 346 342 335 334 332 332 336 336 334 337 330 327 325 321 320 318 317 317 317 317 318 318
317 319 319 318 319 320 319 319 318 318 318 319 319 320 320 320 329 338 345 346 347 347 348 350 351 350 348 346 347 344 344 341 340 342 344 341 340 339 339 333 322 321 321 319 318 318 318 319 332
313 318 316 316 317 318 317 317 317 317 317 318 318 319 319 319 320 329 342 345 344 345 347 349 352 351 349 346 347 346 346 346 345 342 336 342 341 340 335 337 335 336 328 333 326 325 330 334 335
314 314 314 315 315 316 315 315 315 315 316 316 317 318 318 319 320 321 330 342 345 344 347 349 351 352 349 348 347 347 346 346 346 344 334 334 337 336 339 338 337 339 337 337 332 334 330 335 336
313 312 312 313 312 312 313 313 314 314 315 316 316 317 318 319 320 320 322 329 344 345 346 348 350 351 351 351 349 347 347 347 346 345 339 332 337 336 335 337 336 334 336 334 335 332 334 340 340
310 311 312 313 313 312 313 314 313 315 316 316 316 317 317 318 320 320 322 323 341 347 347 347 349 349 349 350 349 348 346 347 347 347 346 337 333 330 331 331 333 331 330 331 325 327 337 340 341
312 313 312 313 313 313 313 313 313 314 314 315 316 316 316 317 317 319 322 325 330 345 349 348 349 350 348 349 350 349 348 347 347 346 344 345 339 337 334 332 329 331 328 328 329 332 338 339 340
312 311 313 313 311 312 312 314 314 314 314 315 314 315 316 317 317 317 318 319 319 327 347 349 349 349 349 347 348 349 348 348 348 347 347 345 344 343 340 341 341 336 332 331 331 334 341 342 343
311 312 312 314 312 313 313 314 314 315 315 315 316 315 315 316 317 317 317 317 314 322 341 349 349 349 349 347 347 348 348 348 348 348 346 344 344 343 342 341 341 340 339 339 337 337 340 342 345
312 313 313 314 314 313 314 315 315 316 315 315 315 315 316 316 317 316 316 315 313 314 324 347 349 349 349 348 347 347 347 347 347 348 346 346 339 334 340 341 338 339 341 340 338 337 338 341 343
312 313 314 314 314 313 315 316 316 316 316 316 316 316 317 317 317 316 316 315 314 314 313 323 345 346 347 347 346 345 345 345 346 346 346 340 343 344 337 342 343 334 339 339 337 338 341 342 344
312 313 314 314 314 314 316 316 317 317 316 316 316 316 317 318 318 318 317 318 317 316 315 316 330 344 345 345 344 344 343 343 343 344 344 340 341 341 334 338 341 339 335 335 335 332 340 342 344
314 314 315 315 314 316 317 317 317 316 315 316 316 316 316 316 317 319 319 317 319 321 320 320 323 337 345 345 344 344 345 344 343 343 342 338 338 337 338 338 339 339 337 340 338 333 343 345 344
315 314 314 314 316 317 317 318 318 317 316 316 317 317 316 315 315 316 317 318 317 320 322 321 322 332 343 345 345 345 346 345 345 344 342 340 337 337 338 338 338 338 338 339 336 342 345 343 344
315 313 314 316 318 319 317 318 318 317 317 317 316 316 318 318 317 316 316 314 314 316 319 323 325 329 336 344 345 346 347 347 347 346 346 344 343 340 342 344 344 343 341 331 331 334 339 336 330
316 316 317 317 318 319 318 319 318 317 316 315 316 317 317 316 316 316 315 315 315 315 316 322 327 329 332 340 344 346 347 347 346 346 346 347 347 346 344 344 344 345 344 342 342 335 327 327 332
317 317 318 319 319 320 317 317 317 316 316 315 316 317 317 316 315 317 316 316 315 315 316 320 325 329 331 335 343 346 346 346 346 346 346 345 344 344 344 344 345 344 343 344 343 340 336 335 332
318 318 319 322 320 319 317 318 317 316 315 315 316 317 315 315 316 317 317 316 317 318 317 317 321 327 329 332 339 343 344 343 343 342 341 342 342 342 341 342 343 344 343 342 342 340 339 337 337
319 320 318 320 320 321 317 316 315 314 314 315 316 315 315 316 317 317 316 316 315 317 319 318 320 324 328 329 330 331 330 328 328 326 327 331 331 333 333 333 336 339 341 342 343 342 343 341 340
318 317 321 321 320 318 314 314 313 312 314 316 314 315 315 316 317 318 317 317 317 316 319 321 321 323 326 325 325 323 320 321 324 322 324 326 327 328 330 330 332 334 337 339 339 338 339 340 340
319 320 319 317 319 319 317 312 314 314 313 313 315 314 315 316 317 318 316 314 317 316 318 320 321 322 324 324 324 324 322 320 321 327 328 328 326 328 331 332 333 335 334 333 332 332 332 333 333
314 318 319 322 318 320 320 317 312 312 312 314 313 313 315 315 315 317 317 315 317 317 316 318 320 320 320 321 321 320 320 321 323 325 328 327 329 330 331 333 333 330 327 325 323 322 322 323 325
Wind_Speed
14 15 10 1 3 1 3 3 2 8 3 1 7 2 3 3 1 2 5 18 14 27 25 31 32 30 27 27 29 32 36 35 32 30 26 23 21 20 19 18 16 15 14 13 13 13 13 13 14
13 9 3 1 2 4 3 1 2 5 9 10 3 3 1 1 0 5 9 16 22 26 25 26 33 32 30 27 30 35 36 35 32 29 26 23 22 20 18 18 16 16 15 14 13 12 12 13 13
7 6 2 0 2 5 3 3 4 7 6 7 3 1 1 3 1 2 5 17 24 27 26 24 33 32 31 30 30 34 34 34 33 30 27 24 22 21 20 18 17 16 16 15 14 13 12 11 11
3 1 3 3 7 3 1 3 5 8 6 10 6 2 1 3 4 0 18 18 24 28 27 28 32 31 30 31 31 32 32 33 32 31 29 26 24 22 21 20 18 17 16 15 14 13 12 12 11
4 1 3 3 4 3 1 2 5 7 5 7 9 7 3 3 4 9 18 18 26 26 25 27 31 30 29 30 31 31 31 31 32 30 28 26 26 24 23 21 20 18 16 15 14 13 11 10 9
2 0 5 9 9 2 4 2 6 4 4 7 6 8 3 2 3 8 11 15 22 26 25 24 30 29 29 29 29 29 30 31 31 30 28 27 25 23 22 21 20 18 17 15 14 12 11 9 7
4 3 9 6 5 5 2 3 2 4 7 5 8 4 5 13 8 5 13 13 19 21 25 24 26 30 29 29 29 29 29 30 31 30 29 27 25 24 22 21 19 18 16 14 12 11 9 9 7
3 2 3 5 8 8 2 3 1 5 3 10 7 2 4 14 11 6 6 13 17 20 23 24 24 25 25 26 28 28 29 29 30 30 28 27 25 24 22 21 19 17 15 13 11 9 8 7 6
2 4 7 8 6 5 4 4 6 6 9 6 6 7 10 11 4 6 9 13 17 20 23 25 26 26 26 25 27 29 28 29 29 28 28 26 21 22 21 20 18 16 14 12 10 9 7 6 6
4 5 8 4 6 8 10 10 9 7 11 12 12 15 16 15 6 10 13 14 20 24 27 27 27 26 25 24 24 25 25 25 25 24 21 21 19 19 18 18 18 15 13 11 10 9 7 7 6
4 6 5 5 9 8 10 10 9 10 14 12 14 17 16 17 12 12 16 18 21 16 21 26 26 26 27 25 25 25 23 22 22 24 25 21 18 17 19 15 16 14 14 11 11 10 8 8 7
4 5 5 3 7 8 10 8 10 12 15 16 16 18 17 18 14 13 15 22 18 17 21 22 23 25 30 25 26 25 26 25 24 23 27 25 21 20 18 16 14 13 12 12 11 9 9 8 6
5 3 5 9 8 9 12 12 12 9 13 14 15 12 15 15 14 18 16 15 19 21 22 25 25 27 29 27 26 25 26 26 25 25 28 30 25 23 22 19 17 16 13 12 10 10 10 8 8
5 3 4 6 9 6 11 15 3 6 10 12 10 13 10 11 13 15 13 17 18 22 25 25 29 31 30 32 30 32 31 26 26 25 26 33 30 30 26 23 19 18 17 16 15 13 11 10 10
2 4 5 11 6 7 5 12 9 12 3 8 12 10 10 9 11 13 14 14 16 22 23 26 31 31 35 34 30 29 30 30 29 30 32 28 32 29 27 25 23 21 19 17 16 14 14 13 13
3 3 4 2 3 2 6 11 9 4 8 11 11 10 9 10 9 12 16 17 24 22 19 25 26 32 33 37 38 34 30 29 28 27 24 28 31 25 26 21 19 19 18 19 16 14 13 11 10
2 4 2 5 3 4 4 8 9 17 14 13 10 11 11 11 11 14 15 17 24 23 25 24 27 32 34 35 34 33 31 31 29 28 31 31 30 27 26 26 25 22 18 17 13 13 13 12 12
5 4 3 7 2 7 14 14 11 13 10 12 12 11 12 12 13 15 16 16 20 25 25 26 26 29 29 29 28 27 27 27 27 29 29 30 30 30 34 31 30 27 25 20 13 15 14 13 14
4 6 9 12 13 5 11 12 12 14 15 14 12 11 11 13 13 14 16 16 17 20 26 30 28 35 29 30 31 29 33 31 29 31 30 34 34 38 37 34 28 32 29 23 19 14 11 14 11
7 9 11 11 11 7 12 14 15 15 11 10 12 15 18 18 16 15 18 15 15 19 23 30 33 32 36 32 33 29 29 28 28 26 27 32 32 34 33 34 29 26 25 28 24 15 14 12 11
10 10 10 11 9 8 12 15 10 8 11 13 14 15 17 17 19 19 18 19 18 16 19 25 32 34 37 37 29 23 14 14 19 24 29 37 35 34 30 30 30 26 23 21 24 17 17 13 11
12 10 13 10 8 10 4 9 16 11 8 9 14 15 14 17 19 18 19 22 24 24 18 20 28 29 32 33 30 31 30 25 27 26 31 34 37 36 31 28 25 26 29 25 18 14 6 6 6
9 4 9 10 11 8 13 13 3 11 16 13 8 15 17 17 18 21 21 26 29 27 23 19 20 24 27 29 31 32 29 26 18 20 23 26 29 34 31 27 27 27 30 32 25 23 14 12 21
2 4 4 2 5 13 16 13 5 8 13 11 14 9 13 17 18 18 24 26 26 27 22 19 18 22 25 28 30 30 28 25 20 21 22 23 22 23 27 26 26 24 29 31 30 28 31 37 51
6 6 7 7 8 12 5 10 13 14 16 12 9 8 14 17 19 19 20 18 22 23 24 19 19 22 23 27 29 31 30 27 26 20 21 20 18 18 20 21 18 17 23 18 21 26 39 41 37
9 10 7 9 12 16 12 9 9 5 12 12 9 9 14 17 18 19 19 18 22 22 25 22 23 23 22 25 26 23 22 22 20 18 16 16 17 15 16 17 16 17 18 19 20 25 31 35 38
5 7 1 6 6 10 11 14 11 13 11 7 9 13 17 18 18 19 18 21 24 19 20 20 23 23 22 23 20 18 19 17 17 17 16 12 12 10 12 13 13 12 13 16 17 19 19 21 20
3 7 3 1 7 16 10 15 12 15 7 10 13 15 17 17 18 19 17 17 22 20 12 14 17 21 17 16 16 18 19 15 12 14 14 14 13 12 11 11 11 10 10 10 10 10 9 9 8
4 4 2 1 3 6 12 6 3 9 12 15 11 16 16 15 16 17 17 18 16 20 7 4 6 12 16 17 17 15 16 17 17 15 15 16 16 15 13 12 12 13 14 12 11 8 7 6 4
5 9 9 6 6 5 8 17 15 19 11 7 16 19 15 12 14 14 16 13 10 14 15 9 3 3 6 3 11 16 18 20 21 20 18 17 16 15 15 16 16 15 12 10 8 7 5 4 2
Wind_Direction
340 340 339 295 226 244 179 146 298 6 340 11 310 298 47 19 185 330 326 168 157 159 161 169 173 171 169 169 169 168 168 167 165 164 161 162 161 161 158 158 158 155 154 150 144 141 137 135 135
340 348 30 33 231 203 148 218 54 348 326 305 233 212 271 48 7 117 120 166 160 160 160 167 176 175 171 168 169 170 169 169 168 167 167 167 166 165 164 163 162 158 154 150 147 144 143 143 143
341 9 319 60 182 214 145 183 346 322 337 5 340 51 338 3 15 153 162 159 160 162 163 170 176 178 175 171 169 172 173 173 172 171 172 172 171 169 168 167 166 163 157 153 151 149 151 150 150
7 52 104 238 225 236 120 122 351 344 18 18 343 89 270 16 320 82 147 153 161 166 167 175 180 180 180 177 176 176 178 179 178 176 176 175 174 174 173 170 169 167 162 157 155 155 154 156 159
40 106 235 235 243 277 194 21 347 346 345 8 5 4 12 40 65 129 153 157 163 168 169 174 183 183 184 182 182 182 181 181 180 181 181 180 178 176 176 175 174 169 165 162 163 160 157 158 159
136 280 220 238 237 240 302 315 320 10 0 351 6 344 318 17 121 151 162 163 169 169 169 174 184 187 188 187 185 186 187 187 186 186 186 184 182 182 181 179 177 172 169 168 169 164 163 165 168
185 187 237 242 254 270 250 349 80 357 334 30 346 331 316 20 11 167 165 166 173 174 173 175 180 187 192 192 191 189 192 192 191 191 190 187 186 187 186 186 182 176 174 174 173 172 174 177 181
122 194 187 237 242 264 195 312 7 5 308 332 333 348 331 351 333 175 194 166 176 180 182 181 182 184 186 193 197 196 195 198 197 195 195 193 192 191 191 191 187 182 180 179 182 183 185 194 203
143 191 223 232 220 235 226 287 316 315 285 302 299 283 314 343 15 192 180 179 181 189 191 189 189 188 188 190 195 198 199 200 200 200 200 199 195 196 197 197 194 190 187 187 191 199 204 213 227
189 213 216 221 233 260 276 291 299 287 292 289 285 276 296 304 307 230 212 215 192 196 197 194 194 193 191 193 192 193 195 197 198 197 205 202 202 198 197 200 199 199 199 201 204 213 223 235 242
152 224 198 227 242 261 270 274 277 280 282 278 285 296 294 296 304 260 224 232 218 213 210 204 197 196 193 196 194 193 195 197 199 198 201 208 211 207 203 203 203 205 208 210 217 223 231 235 241
187 238 202 261 248 269 264 283 271 258 267 275 276 280 290 291 294 286 257 224 223 221 217 215 208 202 198 196 200 199 197 198 201 203 204 208 213 213 208 206 203 205 207 215 219 230 237 245 247
194 231 205 252 268 259 267 251 260 263 264 272 276 276 273 283 280 277 266 262 234 215 217 213 209 207 204 200 200 201 204 203 205 204 207 211 213 219 217 215 208 206 214 220 230 242 249 250 249
170 223 252 272 261 261 269 273 200 236 258 274 281 286 281 285 290 289 274 261 226 224 217 210 212 209 205 205 204 200 203 206 205 208 209 213 216 220 222 223 220 218 224 227 227 232 241 251 260
153 258 256 235 254 243 248 268 243 257 320 295 298 294 298 294 298 285 287 267 244 234 218 214 214 212 206 208 210 210 208 206 209 211 212 217 218 221 225 229 228 230 229 239 244 236 237 240 257
196 203 265 153 206 232 199 267 287 323 325 315 302 302 305 308 304 299 296 288 280 269 240 224 215 217 211 208 209 208 212 209 212 213 214 216 224 222 222 232 239 241 240 245 244 245 255 252 248
33 262 264 305 192 280 229 298 298 301 310 308 303 295 300 303 303 290 286 286 288 271 245 232 217 216 213 212 210 212 210 210 212 212 216 219 220 226 227 232 243 248 245 244 249 256 255 266 260
169 204 234 261 245 289 296 289 292 303 311 300 295 289 292 294 292 294 293 287 289 285 258 237 227 225 217 214 211 214 216 215 212 215 218 219 224 253 238 232 236 244 249 248 250 248 254 256 270
238 242 257 265 273 276 278 285 290 301 303 302 301 294 281 280 282 281 281 289 283 275 262 244 228 227 212 208 208 209 211 211 214 216 214 228 221 219 227 229 238 231 235 242 239 244 255 259 251
220 256 263 272 262 215 278 277 289 282 279 278 286 294 295 293 285 282 286 284 272 269 262 248 232 224 212 210 210 210 216 215 214 217 215 228 226 227 230 236 229 233 233 235 231 234 232 244 228
234 236 261 271 303 245 279 280 270 270 246 270 274 270 274 279 292 298 292 281 287 265 263 251 240 224 216 210 207 207 203 208 203 214 218 225 227 226 227 228 229 235 228 231 226 219 225 223 237
263 229 254 270 281 290 12 291 295 297 275 266 280 296 318 305 299 294 292 294 293 273 264 261 248 228 223 210 205 202 202 200 214 214 214 214 220 220 221 226 227 228 224 222 221 211 208 262 302
255 204 255 277 270 290 279 279 226 285 293 291 329 327 332 332 314 297 294 293 294 287 283 263 245 233 223 216 213 204 210 218 210 209 206 208 215 220 226 230 229 235 235 230 233 228 190 232 299
154 260 287 268 279 262 270 261 290 291 291 298 312 328 338 342 336 324 307 294 285 286 282 270 244 234 220 212 213 214 210 208 202 197 201 205 210 215 223 228 234 234 238 240 247 245 237 244 251
214 255 271 258 239 267 328 289 270 290 282 296 289 317 334 329 331 329 325 313 300 293 288 276 249 236 220 214 213 214 215 209 207 193 193 195 203 206 215 221 223 226 236 228 216 222 222 224 216
207 218 232 267 273 286 306 264 288 285 300 297 283 323 332 336 334 329 330 321 311 306 293 277 255 238 217 204 206 206 206 201 203 193 194 198 204 208 215 220 220 222 226 224 217 225 221 217 218
155 211 308 275 243 275 264 269 272 272 290 338 342 343 346 336 330 325 317 335 320 313 305 281 264 244 220 206 190 188 188 182 178 182 187 185 197 198 211 217 214 202 201 208 205 214 221 226 232
233 137 189 213 283 283 273 283 270 287 292 318 325 337 338 330 331 332 320 313 325 310 315 292 268 248 214 194 176 174 178 180 175 176 179 183 189 187 192 198 196 183 170 166 169 170 176 186 204
177 199 105 316 213 273 297 267 205 271 296 304 301 323 326 325 331 335 325 307 324 317 333 327 278 230 194 177 180 178 172 173 174 175 178 176 172 174 174 174 172 162 152 149 147 143 149 154 155
261 240 216 224 226 235 264 280 275 273 282 259 292 313 315 318 332 337 341 320 324 347 28 38 101 137 82 118 206 181 193 180 179 176 178 169 165 167 168 169 168 163 157 154 151 149 149 151 171